Location: Novo Ouro Preto
(19.8840°S, 43.9844°W)
Time: 09:43:35
(UTC+00:00)

Cosmos 1538 Rocket - Pass Details

Date: 18 September 2020
Orbit: 751 x 792 km, 74.0° (Epoch: 21 October)

Event Time Altitude Azimuth Distance (km) Brightness Sun altitude
Rises 22:07:28 0° 341° (NNW) 3,266 7.4 -18.7°
Reaches altitude 10° 22:09:51 10° 338° (NNW) 2,347 6.7 -19.3°
Maximum altitude 22:15:10 67° 256° (WSW) 862 4.4 -20.5°
Drops below altitude 10° 22:20:33 10° 173° (S) 2,373 6.5 -21.8°
Sets 22:22:59 0° 170° (S) 3,306 7.3 -22.3°
